Regional Weather Roundup
Issued by NWS Huntsville, AL

Home | Current Version | Previous Version | Text Only | Print | Product List | Glossary On
Versions: 1 2 3 4 5 6 7 8 9 10 11 12 13 14 15 16 17 18 19 20 21 22 23 24 25 26 27 28 29 30 31 32 33 34 35 36 37 38 39 40 41 42 43 44 45 46 47 48 49 50
000
ASUS44 KHUN 230810
RWRHUN

WEATHER ROUNDUP FOR THE TENNESSEE VALLEY
NATIONAL WEATHER SERVICE HUNTSVILLE AL
300 AM CDT TUE SEP 23 2014

ALZ001>004-230900-
NORTHWEST ALABAMA

CITY           SKY/WX    TMP DP  RH WIND       PRES   REMARKS
COURTLAND HCN    N/A     57 N/A N/A CALM        N/A
RUSSELLVILLE     N/A     50 N/A N/A MISG        N/A
SHOALS AIRPORT CLEAR     57  46  66 E3        30.20S
SHOALS TVA RES   N/A     57 N/A N/A MISG        N/A
$$

ALZ005>007-016-230900-
NORTH CENTRAL ALABAMA

CITY           SKY/WX    TMP DP  RH WIND       PRES   REMARKS
CULLMAN AG STN   N/A     54 N/A N/A CALM        N/A
DECATUR AP     CLEAR     54  45  71 N7        30.18F
HUNTSVILLE AP  CLEAR     55  46  71 N7        30.17S
HUN NWS/UAH      N/A     57  45  63 NE5         N/A
MERIDIANVILLE  CLEAR     50  43  76 CALM      30.19S
VINEMONT AP    FAIR      50  46  87 CALM      30.18S
$$

ALZ008>010-230900-
NORTHEAST ALABAMA

CITY           SKY/WX    TMP DP  RH WIND       PRES   REMARKS
ALBERTVILLE    CLEAR     55  52  88 N7        30.15R
FORT PAYNE     CLEAR     52  46  82 NE3       30.15S
SCOTTSBORO AP  CLEAR     55  50  82 N6        30.18S
SCOTTSBORO HCN   N/A     52 N/A N/A MISG        N/A
VALLEY HEAD      N/A     57 N/A N/A MISG        N/A
$$

TNZ076-096-097-230900-
SOUTHEASTERN MIDDLE TENNESSEE

CITY           SKY/WX    TMP DP  RH WIND       PRES   REMARKS
FAYETTEVILLE   CLEAR     52  43  71 NE8       30.19S
TULLAHOMA      CLEAR     52  45  76 NE5       30.20F
WINCHESTER     CLEAR     52  46  82 CALM      30.20S
$$

...SURROUNDING SITES...

CITY           SKY/WX    TMP DP  RH WIND       PRES   REMARKS
ATLANTA        CLEAR     63  56  78 NE9       30.13S
ANNISTON       CLEAR     57  51  80 E3        30.12F
BIRMINGHAM     CLEAR     57  49  74 CALM      30.15S
CHATTANOOGA    PTCLDY    60  48  64 NE10      30.18F
CORINTH          N/A     52  48  87 CALM      30.20S
DALTON         CLEAR     54  52  94 CALM      30.16S
GADSDEN        CLEAR     54  46  76 CALM      30.14S
GOLDEN TRNGL   CLEAR     54  46  76 N8        30.16S
HALEYVILLE     FAIR      54  46  74 CALM      30.20F
JACKSON TN     CLEAR     50  46  86 CALM      30.22F
LEWISBURG      FAIR      44  42  93 CALM      30.21F
MEMPHIS        CLEAR     60  47  61 NE7       30.21S
MURFREESBORO   FAIR      51  44  77 N3        30.22S
NASHVILLE      CLEAR     52  46  80 CALM      30.24S
OXFORD MS      FAIR      52  48  87 E7        30.20F
ROME           MOCLDY    57  51  80 N3        30.15S
SAVANNAH       CLEAR     46  46 100 CALM      30.21S
TUPELO         CLEAR     53  49  86 NE8       30.18F
TUSCALOOSA     CLEAR     58  49  72 N5        30.13F
$$

...GULF COAST WEATHER...

CITY           SKY/WX    TMP DP  RH WIND       PRES   REMARKS
GULFPORT       CLEAR     66  53  63 NE7       30.05S
PASCAGOULA     CLEAR     57  55  93 CALM      30.06S
MOBILE         CLEAR     62  54  74 NE6       30.07S
GULF SHORES    SUNNY     63  60  88 NE5       30.04F
PENSACOLA      CLEAR     65  60  84 N6        30.03S
DESTIN         CLEAR     69  65  86 NE8       30.03S
PANAMA CITY    CLEAR     69  67  93 NE8       30.00F
APPALACHICOLA  CLEAR     70  66  87 NE8       29.97F
$$



USA.gov is the U.S. government's official web portal to all federal, state and local government web resources and services.